Year,Month,Day,Hour,Minute,Value (Times are PST for temperature in C)
2016,08,18,00,00,16.70
2016,08,18,00,01,16.70
2016,08,18,00,02,16.70
2016,08,18,00,03,16.70
2016,08,18,00,04,16.60
2016,08,18,00,05,16.60
2016,08,18,00,06,16.60
2016,08,18,00,07,16.60
2016,08,18,00,08,16.50
2016,08,18,00,09,16.40
2016,08,18,00,10,16.40
2016,08,18,00,11,16.40
2016,08,18,00,12,16.40
2016,08,18,00,13,16.40
2016,08,18,00,14,16.40
2016,08,18,00,15,16.40
2016,08,18,00,16,16.40
2016,08,18,00,17,16.40
2016,08,18,00,18,16.30
2016,08,18,00,19,16.30
2016,08,18,00,20,16.30
2016,08,18,00,21,16.30
2016,08,18,00,22,16.30
2016,08,18,00,23,16.30
2016,08,18,00,24,16.30
2016,08,18,00,25,16.30
2016,08,18,00,26,16.30
2016,08,18,00,27,16.30
2016,08,18,00,28,16.20
2016,08,18,00,29,16.20
2016,08,18,00,30,16.20
2016,08,18,00,31,16.20
2016,08,18,00,32,16.20
2016,08,18,00,33,16.10
2016,08,18,00,34,16.10
2016,08,18,00,35,16.10
2016,08,18,00,36,16.10
2016,08,18,00,37,16.00
2016,08,18,00,38,15.90
2016,08,18,00,39,15.80
2016,08,18,00,40,15.80
2016,08,18,00,41,15.70
2016,08,18,00,42,15.60
2016,08,18,00,43,15.50
2016,08,18,00,44,15.50
2016,08,18,00,45,15.40
2016,08,18,00,46,15.40
2016,08,18,00,47,15.30
2016,08,18,00,48,15.30
2016,08,18,00,49,15.20
2016,08,18,00,50,15.10
2016,08,18,00,51,15.10
2016,08,18,00,52,15.00
2016,08,18,00,53,15.00
2016,08,18,00,54,14.90
2016,08,18,00,55,14.90
2016,08,18,00,56,14.80
2016,08,18,00,57,14.80
2016,08,18,00,58,14.80
2016,08,18,00,59,14.80
2016,08,18,01,00,14.70
2016,08,18,01,01,14.70
2016,08,18,01,02,14.70
2016,08,18,01,03,14.60
2016,08,18,01,04,14.60
2016,08,18,01,05,14.60
2016,08,18,01,06,14.60
2016,08,18,01,07,14.60
2016,08,18,01,08,14.50
2016,08,18,01,09,14.50
2016,08,18,01,10,14.50
2016,08,18,01,11,14.50
2016,08,18,01,12,14.40
2016,08,18,01,13,14.40
2016,08,18,01,14,14.40
2016,08,18,01,15,14.40
2016,08,18,01,16,14.30
2016,08,18,01,17,14.30
2016,08,18,01,18,14.30
2016,08,18,01,19,14.30
2016,08,18,01,20,14.30
2016,08,18,01,21,14.30
2016,08,18,01,22,14.30
2016,08,18,01,23,14.30
2016,08,18,01,24,14.20
2016,08,18,01,25,14.20
2016,08,18,01,26,14.20
2016,08,18,01,27,14.20
2016,08,18,01,28,14.20
2016,08,18,01,29,14.20
2016,08,18,01,30,14.20
2016,08,18,01,31,14.20
2016,08,18,01,32,14.20
2016,08,18,01,33,14.20
2016,08,18,01,34,14.20
2016,08,18,01,35,14.20
2016,08,18,01,36,14.20
2016,08,18,01,37,14.20
2016,08,18,01,38,14.20
2016,08,18,01,39,14.30
2016,08,18,01,40,14.30
2016,08,18,01,41,14.30
2016,08,18,01,42,14.30
2016,08,18,01,43,14.30
2016,08,18,01,44,14.30
2016,08,18,01,45,14.30
2016,08,18,01,46,14.30
2016,08,18,01,47,14.30
2016,08,18,01,48,14.30
2016,08,18,01,49,14.30
2016,08,18,01,50,14.40
2016,08,18,01,51,14.40
2016,08,18,01,52,14.40
2016,08,18,01,53,14.40
2016,08,18,01,54,14.40
2016,08,18,01,55,14.30
2016,08,18,01,56,14.30
2016,08,18,01,57,14.30
2016,08,18,01,58,14.30
2016,08,18,01,59,14.30
2016,08,18,02,00,14.30
2016,08,18,02,01,14.30
2016,08,18,02,02,14.30
2016,08,18,02,03,14.30
2016,08,18,02,04,14.30
2016,08,18,02,05,14.30
2016,08,18,02,06,14.30
2016,08,18,02,07,14.30
2016,08,18,02,08,14.30
2016,08,18,02,09,14.30
2016,08,18,02,10,14.30
2016,08,18,02,11,14.30
2016,08,18,02,12,14.30
2016,08,18,02,13,14.30
2016,08,18,02,14,14.30
2016,08,18,02,15,14.30
2016,08,18,02,16,14.30
2016,08,18,02,17,14.40
2016,08,18,02,18,14.40
2016,08,18,02,19,14.40
2016,08,18,02,20,14.40
2016,08,18,02,21,14.40
2016,08,18,02,22,14.40
2016,08,18,02,23,14.40
2016,08,18,02,24,14.40
2016,08,18,02,25,14.40
2016,08,18,02,26,14.40
2016,08,18,02,27,14.40
2016,08,18,02,28,14.40
2016,08,18,02,29,14.40
2016,08,18,02,30,14.40
2016,08,18,02,31,14.40
2016,08,18,02,32,14.40
2016,08,18,02,33,14.40
2016,08,18,02,34,14.40
2016,08,18,02,35,14.40
2016,08,18,02,36,14.40
2016,08,18,02,37,14.40
2016,08,18,02,38,14.40
2016,08,18,02,39,14.40
2016,08,18,02,40,14.40
2016,08,18,02,41,14.40
2016,08,18,02,42,14.40
2016,08,18,02,43,14.40
2016,08,18,02,44,14.40
2016,08,18,02,45,14.40
2016,08,18,02,46,14.30
2016,08,18,02,47,14.30
2016,08,18,02,48,14.30
2016,08,18,02,49,14.30
2016,08,18,02,50,14.30
2016,08,18,02,51,14.30
2016,08,18,02,52,14.30
2016,08,18,02,53,14.30
2016,08,18,02,54,14.30
2016,08,18,02,55,14.30
2016,08,18,02,56,14.20
2016,08,18,02,57,14.20
2016,08,18,02,58,14.20
2016,08,18,02,59,14.20
2016,08,18,03,00,14.20
2016,08,18,03,01,14.20
2016,08,18,03,02,14.20
2016,08,18,03,03,14.20
2016,08,18,03,04,14.20
2016,08,18,03,05,14.20
2016,08,18,03,06,14.20
2016,08,18,03,07,14.20
2016,08,18,03,08,14.20
2016,08,18,03,09,14.20
2016,08,18,03,10,14.20
2016,08,18,03,11,14.20
2016,08,18,03,12,14.20
2016,08,18,03,13,14.20
2016,08,18,03,14,14.20
2016,08,18,03,15,14.20
2016,08,18,03,16,14.20
2016,08,18,03,17,14.20
2016,08,18,03,18,14.20
2016,08,18,03,19,14.20
2016,08,18,03,20,14.20
2016,08,18,03,21,14.20
2016,08,18,03,22,14.20
2016,08,18,03,23,14.20
2016,08,18,03,24,14.20
2016,08,18,03,25,14.20
2016,08,18,03,26,14.20
2016,08,18,03,27,14.20
2016,08,18,03,28,14.20
2016,08,18,03,29,14.20
2016,08,18,03,30,14.20
2016,08,18,03,31,14.20
2016,08,18,03,32,14.20
2016,08,18,03,33,14.20
2016,08,18,03,34,14.20
2016,08,18,03,35,14.20
2016,08,18,03,36,14.10
2016,08,18,03,37,14.10
2016,08,18,03,38,14.10
2016,08,18,03,39,14.10
2016,08,18,03,40,14.10
2016,08,18,03,41,14.10
2016,08,18,03,42,14.10
2016,08,18,03,43,14.10
2016,08,18,03,44,14.10
2016,08,18,03,45,14.10
2016,08,18,03,46,14.10
2016,08,18,03,47,14.10
2016,08,18,03,48,14.10
2016,08,18,03,49,14.10
2016,08,18,03,50,14.10
2016,08,18,03,51,14.10
2016,08,18,03,52,14.10
2016,08,18,03,53,14.10
2016,08,18,03,54,14.10
2016,08,18,03,55,14.10
2016,08,18,03,56,14.10
2016,08,18,03,57,14.10
2016,08,18,03,58,14.10
2016,08,18,03,59,14.10
2016,08,18,04,00,14.10
2016,08,18,04,01,14.10
2016,08,18,04,02,14.10
2016,08,18,04,03,14.10
2016,08,18,04,04,14.10
2016,08,18,04,05,14.10
2016,08,18,04,06,14.10
2016,08,18,04,07,14.10
2016,08,18,04,08,14.10
2016,08,18,04,09,14.10
2016,08,18,04,10,14.20
2016,08,18,04,11,14.20
2016,08,18,04,12,14.20
2016,08,18,04,13,14.20
2016,08,18,04,14,14.20
2016,08,18,04,15,14.20
2016,08,18,04,16,14.30
2016,08,18,04,17,14.30
2016,08,18,04,18,14.30
2016,08,18,04,19,14.30
2016,08,18,04,20,14.30
2016,08,18,04,21,14.30
2016,08,18,04,22,14.30
2016,08,18,04,23,14.30
2016,08,18,04,24,14.20
2016,08,18,04,25,14.20
2016,08,18,04,26,14.20
2016,08,18,04,27,14.20
2016,08,18,04,28,14.20
2016,08,18,04,29,14.20
2016,08,18,04,30,14.20
2016,08,18,04,31,14.20
2016,08,18,04,32,14.10
2016,08,18,04,33,14.10
2016,08,18,04,34,14.20
2016,08,18,04,35,14.20
2016,08,18,04,36,14.20
2016,08,18,04,37,14.20
2016,08,18,04,38,14.20
2016,08,18,04,39,14.20
2016,08,18,04,40,14.20
2016,08,18,04,41,14.20
2016,08,18,04,42,14.20
2016,08,18,04,43,14.20
2016,08,18,04,44,14.30
2016,08,18,04,45,14.30
2016,08,18,04,46,14.40
2016,08,18,04,47,14.40
2016,08,18,04,48,14.40
2016,08,18,04,49,14.50
2016,08,18,04,50,14.50
2016,08,18,04,51,14.50
2016,08,18,04,52,14.50
2016,08,18,04,53,14.50
2016,08,18,04,54,14.50
2016,08,18,04,55,14.50
2016,08,18,04,56,14.50
2016,08,18,04,57,14.50
2016,08,18,04,58,14.60
2016,08,18,04,59,14.60
2016,08,18,05,00,14.60
2016,08,18,05,01,14.60
2016,08,18,05,02,14.60
2016,08,18,05,03,14.60
2016,08,18,05,04,14.60
2016,08,18,05,05,14.60
2016,08,18,05,06,14.60
2016,08,18,05,07,14.60
2016,08,18,05,08,14.60
2016,08,18,05,09,14.60
2016,08,18,05,10,14.60
2016,08,18,05,11,14.60
2016,08,18,05,12,14.60
2016,08,18,05,13,14.60
2016,08,18,05,14,14.60
2016,08,18,05,15,14.60
2016,08,18,05,16,14.60
2016,08,18,05,17,14.60
2016,08,18,05,18,14.60
2016,08,18,05,19,14.50
2016,08,18,05,20,14.50
2016,08,18,05,21,14.50
2016,08,18,05,22,14.50
2016,08,18,05,23,14.50
2016,08,18,05,24,14.40
2016,08,18,05,25,14.40
2016,08,18,05,26,14.40
2016,08,18,05,27,14.40
2016,08,18,05,28,14.40
2016,08,18,05,29,14.40
2016,08,18,05,30,14.40
2016,08,18,05,31,14.40
2016,08,18,05,32,14.30
2016,08,18,05,33,14.30
2016,08,18,05,34,14.30
2016,08,18,05,35,14.30
2016,08,18,05,36,14.30
2016,08,18,05,37,14.20
2016,08,18,05,38,14.20
2016,08,18,05,39,14.20
2016,08,18,05,40,14.20
2016,08,18,05,41,14.20
2016,08,18,05,42,14.20
2016,08,18,05,43,14.20
2016,08,18,05,44,14.20
2016,08,18,05,45,14.20
2016,08,18,05,46,14.20
2016,08,18,05,47,14.20
2016,08,18,05,48,14.20
2016,08,18,05,49,14.20
2016,08,18,05,50,14.20
2016,08,18,05,51,14.20
2016,08,18,05,52,14.20
2016,08,18,05,53,14.20
2016,08,18,05,54,14.20
2016,08,18,05,55,14.20
2016,08,18,05,56,14.30
2016,08,18,05,57,14.30
2016,08,18,05,58,14.30
2016,08,18,05,59,14.30
2016,08,18,06,00,14.30
2016,08,18,06,01,14.30
2016,08,18,06,02,14.30
2016,08,18,06,03,14.40
2016,08,18,06,04,14.40
2016,08,18,06,05,14.40
2016,08,18,06,06,14.40
2016,08,18,06,07,14.40
2016,08,18,06,08,14.40
2016,08,18,06,09,14.30
2016,08,18,06,10,14.30
2016,08,18,06,11,14.30
2016,08,18,06,12,14.30
2016,08,18,06,13,14.30
2016,08,18,06,14,14.20
2016,08,18,06,15,14.20
2016,08,18,06,16,14.20
2016,08,18,06,17,14.20
2016,08,18,06,18,14.20
2016,08,18,06,19,14.20
2016,08,18,06,20,14.20
2016,08,18,06,21,14.20
2016,08,18,06,22,14.20
2016,08,18,06,23,14.20
2016,08,18,06,24,14.20
2016,08,18,06,25,14.20
2016,08,18,06,26,14.20
2016,08,18,06,27,14.20
2016,08,18,06,28,14.10
2016,08,18,06,29,14.10
2016,08,18,06,30,14.10
2016,08,18,06,31,14.10
2016,08,18,06,32,14.10
2016,08,18,06,33,14.10
2016,08,18,06,34,14.10
2016,08,18,06,35,14.10
2016,08,18,06,36,14.10
2016,08,18,06,37,14.10
2016,08,18,06,38,14.20
2016,08,18,06,39,14.20
2016,08,18,06,40,14.20
2016,08,18,06,41,14.20
2016,08,18,06,42,14.20
2016,08,18,06,43,14.20
2016,08,18,06,44,14.20
2016,08,18,06,45,14.20
2016,08,18,06,46,14.20
2016,08,18,06,47,14.20
2016,08,18,06,48,14.20
2016,08,18,06,49,14.20
2016,08,18,06,50,14.30
2016,08,18,06,51,14.40
2016,08,18,06,52,14.50
2016,08,18,06,53,14.50
2016,08,18,06,54,14.60
2016,08,18,06,55,14.60
2016,08,18,06,56,14.70
2016,08,18,06,57,14.80
2016,08,18,06,58,14.80
2016,08,18,06,59,14.80
2016,08,18,07,00,14.90
2016,08,18,07,01,14.90
2016,08,18,07,02,15.00
2016,08,18,07,03,15.00
2016,08,18,07,04,15.10
2016,08,18,07,05,15.10
2016,08,18,07,06,15.20
2016,08,18,07,07,15.20
2016,08,18,07,08,15.30
2016,08,18,07,09,15.30
2016,08,18,07,10,15.40
2016,08,18,07,11,15.50
2016,08,18,07,12,15.50
2016,08,18,07,13,15.60
2016,08,18,07,14,15.70
2016,08,18,07,15,15.70
2016,08,18,07,16,15.80
2016,08,18,07,17,15.80
2016,08,18,07,18,15.80
2016,08,18,07,19,15.80
2016,08,18,07,20,15.90
2016,08,18,07,21,16.00
2016,08,18,07,22,16.10
2016,08,18,07,23,16.20
2016,08,18,07,24,16.20
2016,08,18,07,25,16.20
2016,08,18,07,26,16.10
2016,08,18,07,27,16.10
2016,08,18,07,28,16.10
2016,08,18,07,29,16.10
2016,08,18,07,30,16.10
2016,08,18,07,31,16.10
2016,08,18,07,32,16.10
2016,08,18,07,33,16.30
2016,08,18,07,34,16.40
2016,08,18,07,35,16.50
2016,08,18,07,36,16.60
2016,08,18,07,37,16.70
2016,08,18,07,38,16.90
2016,08,18,07,39,16.90
2016,08,18,07,40,17.00
2016,08,18,07,41,17.00
2016,08,18,07,42,17.10
2016,08,18,07,43,17.20
2016,08,18,07,44,17.20
2016,08,18,07,45,17.30
2016,08,18,07,46,17.30
2016,08,18,07,47,17.30
2016,08,18,07,48,17.30
2016,08,18,07,49,17.30
2016,08,18,07,50,17.40
2016,08,18,07,51,17.50
2016,08,18,07,52,17.60
2016,08,18,07,53,17.70
2016,08,18,07,54,17.70
2016,08,18,07,55,17.80
2016,08,18,07,56,17.80
2016,08,18,07,57,17.90
2016,08,18,07,58,17.90
2016,08,18,07,59,17.90
2016,08,18,08,00,17.90
2016,08,18,08,01,17.90
2016,08,18,08,02,18.00
2016,08,18,08,03,18.10
2016,08,18,08,04,18.00
2016,08,18,08,05,17.90
2016,08,18,08,06,18.00
2016,08,18,08,07,18.10
2016,08,18,08,08,18.20
2016,08,18,08,09,18.20
2016,08,18,08,10,18.20
2016,08,18,08,11,18.30
2016,08,18,08,12,18.50
2016,08,18,08,13,18.60
2016,08,18,08,14,18.70
2016,08,18,08,15,18.90
2016,08,18,08,16,19.00
2016,08,18,08,17,19.10
2016,08,18,08,18,19.20
2016,08,18,08,19,19.20
2016,08,18,08,20,19.30
2016,08,18,08,21,19.40
2016,08,18,08,22,19.40
2016,08,18,08,23,19.50
2016,08,18,08,24,19.50
2016,08,18,08,25,19.50
2016,08,18,08,26,19.60
2016,08,18,08,27,19.60
2016,08,18,08,28,19.70
2016,08,18,08,29,19.90
2016,08,18,08,30,20.00
2016,08,18,08,31,20.20
2016,08,18,08,32,20.30
2016,08,18,08,33,20.40
2016,08,18,08,34,20.50
2016,08,18,08,35,20.60
2016,08,18,08,36,20.60
2016,08,18,08,37,20.80
2016,08,18,08,38,20.90
2016,08,18,08,39,21.00
2016,08,18,08,40,21.20
2016,08,18,08,41,21.30
2016,08,18,08,42,21.30
2016,08,18,08,43,21.30
2016,08,18,08,44,21.30
2016,08,18,08,45,21.30
2016,08,18,08,46,21.30
2016,08,18,08,47,21.20
2016,08,18,08,48,21.20
2016,08,18,08,49,21.20
2016,08,18,08,50,21.20
2016,08,18,08,51,21.30
2016,08,18,08,52,21.20
2016,08,18,08,53,21.20
2016,08,18,08,54,21.20
2016,08,18,08,55,21.20
2016,08,18,08,56,21.20
2016,08,18,08,57,21.20
2016,08,18,08,58,21.20
2016,08,18,08,59,21.20
2016,08,18,09,00,21.20
2016,08,18,09,01,21.10
2016,08,18,09,02,21.10
2016,08,18,09,03,21.10
2016,08,18,09,04,21.20
2016,08,18,09,05,21.20
2016,08,18,09,06,21.30
2016,08,18,09,07,21.30
2016,08,18,09,08,21.30
2016,08,18,09,09,21.30
2016,08,18,09,10,21.30
2016,08,18,09,11,21.40
2016,08,18,09,12,21.50
2016,08,18,09,13,21.60
2016,08,18,09,14,21.60
2016,08,18,09,15,21.60
2016,08,18,09,16,21.70
2016,08,18,09,17,21.80
2016,08,18,09,18,21.80
2016,08,18,09,19,21.90
2016,08,18,09,20,22.00
2016,08,18,09,21,22.00
2016,08,18,09,22,22.10
2016,08,18,09,23,22.20
2016,08,18,09,24,22.30
2016,08,18,09,25,22.40
2016,08,18,09,26,22.50
2016,08,18,09,27,22.60
2016,08,18,09,28,22.70
2016,08,18,09,29,22.70
2016,08,18,09,30,22.80
2016,08,18,09,31,22.80
2016,08,18,09,32,22.80
2016,08,18,09,33,22.80
2016,08,18,09,34,22.90
2016,08,18,09,35,22.90
2016,08,18,09,36,22.90
2016,08,18,09,37,22.90
2016,08,18,09,38,22.90
2016,08,18,09,39,23.00
2016,08,18,09,40,23.10
2016,08,18,09,41,23.10
2016,08,18,09,42,23.10
2016,08,18,09,43,23.10
2016,08,18,09,44,23.10
2016,08,18,09,45,23.20
2016,08,18,09,46,23.20
2016,08,18,09,47,23.20
2016,08,18,09,48,23.20
2016,08,18,09,49,23.20
2016,08,18,09,50,23.30
2016,08,18,09,51,23.30
2016,08,18,09,52,23.40
2016,08,18,09,53,23.60
2016,08,18,09,54,23.70
2016,08,18,09,55,23.70
2016,08,18,09,56,23.80
2016,08,18,09,57,23.80
2016,08,18,09,58,23.80
2016,08,18,09,59,23.70
2016,08,18,10,00,23.70
2016,08,18,10,01,23.80
2016,08,18,10,02,23.80
2016,08,18,10,03,23.90
2016,08,18,10,04,24.00
2016,08,18,10,05,24.10
2016,08,18,10,06,24.20
2016,08,18,10,07,24.30
2016,08,18,10,08,24.40
2016,08,18,10,09,24.50
2016,08,18,10,10,24.50
2016,08,18,10,11,24.50
2016,08,18,10,12,24.60
2016,08,18,10,13,24.60
2016,08,18,10,14,24.70
2016,08,18,10,15,24.70
2016,08,18,10,16,24.80
2016,08,18,10,17,24.90
2016,08,18,10,18,24.90
2016,08,18,10,19,25.00
2016,08,18,10,20,25.00
2016,08,18,10,21,25.00
2016,08,18,10,22,25.00
2016,08,18,10,23,25.10
2016,08,18,10,24,25.10
2016,08,18,10,25,25.10
2016,08,18,10,26,25.10
2016,08,18,10,27,25.20
2016,08,18,10,28,25.20
2016,08,18,10,29,25.30
2016,08,18,10,30,25.40
2016,08,18,10,31,25.40
2016,08,18,10,32,25.40
2016,08,18,10,33,25.50
2016,08,18,10,34,25.50
2016,08,18,10,35,25.50
2016,08,18,10,36,25.50
2016,08,18,10,37,25.30
2016,08,18,10,38,25.20
2016,08,18,10,39,25.30
2016,08,18,10,40,25.30
2016,08,18,10,41,25.30
2016,08,18,10,42,25.20
2016,08,18,10,43,25.20
2016,08,18,10,44,25.10
2016,08,18,10,45,25.10
2016,08,18,10,46,24.90
2016,08,18,10,47,24.90
2016,08,18,10,48,24.90
2016,08,18,10,49,24.90
2016,08,18,10,50,25.00
2016,08,18,10,51,25.00
2016,08,18,10,52,25.00
2016,08,18,10,53,25.10
2016,08,18,10,54,25.10
2016,08,18,10,55,25.10
2016,08,18,10,56,25.00
2016,08,18,10,57,25.10
2016,08,18,10,58,25.00
2016,08,18,10,59,24.90
2016,08,18,11,00,24.80
2016,08,18,11,01,24.80
2016,08,18,11,02,24.90
2016,08,18,11,03,24.90
2016,08,18,11,04,25.10
2016,08,18,11,05,25.20
2016,08,18,11,06,25.30
2016,08,18,11,07,25.50
2016,08,18,11,08,25.70
2016,08,18,11,09,25.90
2016,08,18,11,10,25.90
2016,08,18,11,11,26.00
2016,08,18,11,12,26.20
2016,08,18,11,13,26.30
2016,08,18,11,14,26.30
2016,08,18,11,15,26.40
2016,08,18,11,16,26.40
2016,08,18,11,17,26.40
2016,08,18,11,18,26.40
2016,08,18,11,19,26.40
2016,08,18,11,20,26.30
2016,08,18,11,21,26.30
2016,08,18,11,22,26.30
2016,08,18,11,23,26.30
2016,08,18,11,24,26.40
2016,08,18,11,25,26.40
2016,08,18,11,26,26.40
2016,08,18,11,27,26.40
2016,08,18,11,28,26.50
2016,08,18,11,29,26.60
2016,08,18,11,30,26.50
2016,08,18,11,31,26.40
2016,08,18,11,32,26.40
2016,08,18,11,33,26.30
2016,08,18,11,34,26.30
2016,08,18,11,35,26.40
2016,08,18,11,36,26.40
2016,08,18,11,37,26.50
2016,08,18,11,38,26.60
2016,08,18,11,39,26.60
2016,08,18,11,40,26.60
2016,08,18,11,41,26.60
2016,08,18,11,42,26.60
2016,08,18,11,43,26.60
2016,08,18,11,44,26.60
2016,08,18,11,45,26.60
2016,08,18,11,46,26.60
2016,08,18,11,47,26.60
2016,08,18,11,48,26.60
2016,08,18,11,49,26.60
2016,08,18,11,50,26.60
2016,08,18,11,51,26.60
2016,08,18,11,52,26.60
2016,08,18,11,53,26.60
2016,08,18,11,54,26.60
2016,08,18,11,55,26.60
2016,08,18,11,56,26.60
2016,08,18,11,57,26.50
2016,08,18,11,58,26.40
2016,08,18,11,59,26.40
2016,08,18,12,00,26.40
2016,08,18,12,01,26.40
2016,08,18,12,02,26.40
2016,08,18,12,03,26.40
2016,08,18,12,04,26.40
2016,08,18,12,05,26.40
2016,08,18,12,06,26.50
2016,08,18,12,07,26.60
2016,08,18,12,08,26.60
2016,08,18,12,09,26.60
2016,08,18,12,10,26.70
2016,08,18,12,11,26.70
2016,08,18,12,12,26.80
2016,08,18,12,13,26.90
2016,08,18,12,14,27.00
2016,08,18,12,15,27.20
2016,08,18,12,16,27.30
2016,08,18,12,17,27.30
2016,08,18,12,18,27.30
2016,08,18,12,19,27.30
2016,08,18,12,20,27.40
2016,08,18,12,21,27.50
2016,08,18,12,22,27.60
2016,08,18,12,23,27.70
2016,08,18,12,24,27.80
2016,08,18,12,25,27.80
2016,08,18,12,26,27.90
2016,08,18,12,27,27.90
2016,08,18,12,28,27.90
2016,08,18,12,29,27.90
2016,08,18,12,30,27.80
2016,08,18,12,31,27.80
2016,08,18,12,32,27.80
2016,08,18,12,33,27.80
2016,08,18,12,34,27.80
2016,08,18,12,35,27.90
2016,08,18,12,36,28.00
2016,08,18,12,37,28.00
2016,08,18,12,38,28.00
2016,08,18,12,39,28.00
2016,08,18,12,40,27.70
2016,08,18,12,41,27.40
2016,08,18,12,42,27.30
2016,08,18,12,43,27.30
2016,08,18,12,44,27.20
2016,08,18,12,45,27.20
2016,08,18,12,46,27.10
2016,08,18,12,47,27.10
2016,08,18,12,48,27.00
2016,08,18,12,49,26.90
2016,08,18,12,50,26.80
2016,08,18,12,51,26.80
2016,08,18,12,52,26.80
2016,08,18,12,53,26.80
2016,08,18,12,54,26.80
2016,08,18,12,55,26.80
2016,08,18,12,56,26.80
2016,08,18,12,57,26.80
2016,08,18,12,58,26.80
2016,08,18,12,59,26.70
2016,08,18,13,00,26.70
2016,08,18,13,01,26.80
2016,08,18,13,02,27.00
2016,08,18,13,03,27.20
2016,08,18,13,04,27.30
2016,08,18,13,05,27.40
2016,08,18,13,06,27.40
2016,08,18,13,07,27.50
2016,08,18,13,08,27.60
2016,08,18,13,09,27.70
2016,08,18,13,10,27.80
2016,08,18,13,11,27.90
2016,08,18,13,12,28.00
2016,08,18,13,13,28.20
2016,08,18,13,14,28.30
2016,08,18,13,15,28.40
2016,08,18,13,16,28.40
2016,08,18,13,17,28.60
2016,08,18,13,18,28.60
2016,08,18,13,19,28.70
2016,08,18,13,20,28.80
2016,08,18,13,21,28.80
2016,08,18,13,22,28.90
2016,08,18,13,23,28.90
2016,08,18,13,24,28.90
2016,08,18,13,25,28.90
2016,08,18,13,26,28.80
2016,08,18,13,27,28.80
2016,08,18,13,28,28.80
2016,08,18,13,29,28.70
2016,08,18,13,30,28.70
2016,08,18,13,31,28.70
2016,08,18,13,32,28.70
2016,08,18,13,33,28.60
2016,08,18,13,34,28.70
2016,08,18,13,35,28.70
2016,08,18,13,36,28.70
2016,08,18,13,37,28.80
2016,08,18,13,38,28.80
2016,08,18,13,39,28.80
2016,08,18,13,40,28.80
2016,08,18,13,41,28.80
2016,08,18,13,42,28.80
2016,08,18,13,43,28.80
2016,08,18,13,44,28.90
2016,08,18,13,45,28.90
2016,08,18,13,46,28.90
2016,08,18,13,47,28.90
2016,08,18,13,48,29.10
2016,08,18,13,49,29.10
2016,08,18,13,50,29.10
2016,08,18,13,51,29.10
2016,08,18,13,52,29.20
2016,08,18,13,53,29.20
2016,08,18,13,54,29.20
2016,08,18,13,55,29.20
2016,08,18,13,56,29.20
2016,08,18,13,57,29.20
2016,08,18,13,58,29.20
2016,08,18,13,59,29.30
2016,08,18,14,00,29.30
2016,08,18,14,01,29.30
2016,08,18,14,02,29.40
2016,08,18,14,03,29.50
2016,08,18,14,04,29.50
2016,08,18,14,05,29.50
2016,08,18,14,06,29.60
2016,08,18,14,07,29.60
2016,08,18,14,08,29.60
2016,08,18,14,09,29.70
2016,08,18,14,10,29.70
2016,08,18,14,11,29.80
2016,08,18,14,12,29.80
2016,08,18,14,13,29.80
2016,08,18,14,14,29.80
2016,08,18,14,15,29.80
2016,08,18,14,16,29.80
2016,08,18,14,17,29.90
2016,08,18,14,18,30.00
2016,08,18,14,19,30.20
2016,08,18,14,20,30.10
2016,08,18,14,21,30.10
2016,08,18,14,22,30.00
2016,08,18,14,23,29.70
2016,08,18,14,24,29.50
2016,08,18,14,25,29.40
2016,08,18,14,26,29.30
2016,08,18,14,27,29.30
2016,08,18,14,28,29.30
2016,08,18,14,29,29.30
2016,08,18,14,30,29.40
2016,08,18,14,31,29.20
2016,08,18,14,32,29.10
2016,08,18,14,33,29.10
2016,08,18,14,34,29.10
2016,08,18,14,35,29.10
2016,08,18,14,36,29.20
2016,08,18,14,37,29.30
2016,08,18,14,38,29.40
2016,08,18,14,39,29.40
2016,08,18,14,40,29.50
2016,08,18,14,41,29.50
2016,08,18,14,42,29.50
2016,08,18,14,43,29.50
2016,08,18,14,44,29.40
2016,08,18,14,45,29.30
2016,08,18,14,46,29.40
2016,08,18,14,47,29.40
2016,08,18,14,48,29.40
2016,08,18,14,49,29.40
2016,08,18,14,50,29.30
2016,08,18,14,51,29.10
2016,08,18,14,52,29.10
2016,08,18,14,53,29.00
2016,08,18,14,54,29.10
2016,08,18,14,55,29.10
2016,08,18,14,56,29.10
2016,08,18,14,57,29.20
2016,08,18,14,58,29.30
2016,08,18,14,59,29.50
2016,08,18,15,00,29.60
2016,08,18,15,01,29.70
2016,08,18,15,02,29.90
2016,08,18,15,03,30.10
2016,08,18,15,04,30.20
2016,08,18,15,05,30.30
2016,08,18,15,06,30.40
2016,08,18,15,07,30.60
2016,08,18,15,08,30.70
2016,08,18,15,09,30.70
2016,08,18,15,10,30.70
2016,08,18,15,11,30.60
2016,08,18,15,12,30.60
2016,08,18,15,13,30.60
2016,08,18,15,14,30.60
2016,08,18,15,15,30.60
2016,08,18,15,16,30.70
2016,08,18,15,17,30.70
2016,08,18,15,18,30.70
2016,08,18,15,19,30.70
2016,08,18,15,20,30.70
2016,08,18,15,21,30.70
2016,08,18,15,22,30.70
2016,08,18,15,23,30.70
2016,08,18,15,24,30.70
2016,08,18,15,25,30.70
2016,08,18,15,26,30.70
2016,08,18,15,27,30.80
2016,08,18,15,28,30.80
2016,08,18,15,29,30.90
2016,08,18,15,30,30.90
2016,08,18,15,31,31.00
2016,08,18,15,32,31.10
2016,08,18,15,33,31.10
2016,08,18,15,34,31.10
2016,08,18,15,35,31.10
2016,08,18,15,36,31.10
2016,08,18,15,37,31.20
2016,08,18,15,38,31.20
2016,08,18,15,39,31.30
2016,08,18,15,40,31.30
2016,08,18,15,41,31.30
2016,08,18,15,42,31.40
2016,08,18,15,43,31.40
2016,08,18,15,44,31.40
2016,08,18,15,45,31.40
2016,08,18,15,46,31.40
2016,08,18,15,47,31.30
2016,08,18,15,48,31.20
2016,08,18,15,49,31.10
2016,08,18,15,50,31.10
2016,08,18,15,51,31.00
2016,08,18,15,52,31.10
2016,08,18,15,53,31.10
2016,08,18,15,54,31.10
2016,08,18,15,55,31.10
2016,08,18,15,56,31.00
2016,08,18,15,57,30.90
2016,08,18,15,58,30.70
2016,08,18,15,59,30.60
2016,08,18,16,00,30.50
2016,08,18,16,01,30.40
2016,08,18,16,02,30.40
2016,08,18,16,03,30.30
2016,08,18,16,04,30.20
2016,08,18,16,05,30.10
2016,08,18,16,06,30.00
2016,08,18,16,07,29.90
2016,08,18,16,08,29.90
2016,08,18,16,09,29.90
2016,08,18,16,10,29.90
2016,08,18,16,11,29.90
2016,08,18,16,12,30.10
2016,08,18,16,13,30.20
2016,08,18,16,14,30.20
2016,08,18,16,15,30.30
2016,08,18,16,16,30.30
2016,08,18,16,17,30.40
2016,08,18,16,18,30.60
2016,08,18,16,19,30.70
2016,08,18,16,20,30.80
2016,08,18,16,21,30.90
2016,08,18,16,22,31.00
2016,08,18,16,23,31.00
2016,08,18,16,24,31.10
2016,08,18,16,25,31.10
2016,08,18,16,26,31.00
2016,08,18,16,27,30.70
2016,08,18,16,28,30.60
2016,08,18,16,29,30.60
2016,08,18,16,30,30.40
2016,08,18,16,31,30.30
2016,08,18,16,32,30.20
2016,08,18,16,33,30.10
2016,08,18,16,34,30.00
2016,08,18,16,35,29.90
2016,08,18,16,36,29.90
2016,08,18,16,37,30.00
2016,08,18,16,38,30.10
2016,08,18,16,39,30.10
2016,08,18,16,40,30.20
2016,08,18,16,41,30.30
2016,08,18,16,42,30.50
2016,08,18,16,43,30.70
2016,08,18,16,44,30.70
2016,08,18,16,45,30.70
2016,08,18,16,46,30.70
2016,08,18,16,47,30.70
2016,08,18,16,48,30.70
2016,08,18,16,49,30.80
2016,08,18,16,50,30.90
2016,08,18,16,51,31.00
2016,08,18,16,52,31.10
2016,08,18,16,53,31.10
2016,08,18,16,54,31.20
2016,08,18,16,55,31.30
2016,08,18,16,56,31.40
2016,08,18,16,57,31.50
2016,08,18,16,58,31.60
2016,08,18,16,59,31.60
2016,08,18,17,00,31.70
2016,08,18,17,01,31.80
2016,08,18,17,02,31.90
2016,08,18,17,03,31.90
2016,08,18,17,04,31.90
2016,08,18,17,05,31.80
2016,08,18,17,06,31.70
2016,08,18,17,07,31.70
2016,08,18,17,08,31.70
2016,08,18,17,09,31.60
2016,08,18,17,10,31.60
2016,08,18,17,11,31.60
2016,08,18,17,12,31.60
2016,08,18,17,13,31.50
2016,08,18,17,14,31.40
2016,08,18,17,15,31.40
2016,08,18,17,16,31.40
2016,08,18,17,17,31.40
2016,08,18,17,18,31.50
2016,08,18,17,19,31.60